Wind_Speed
54 54 54 53 52 52 52 51 51 52 52 51 52 52 53 54 54 55 54 54 53 53 52 52 53 53 54 55 56 57 57 56 55 54 53 54 54 53 52 51 49 47
53 53 53 52 52 53 55 54 55 55 55 54 53 54 54 55 56 56 56 55 55 54 54 54 54 54 54 55 55 56 56 56 56 55 54 55 55 54 53 53 51 49
53 53 53 54 55 56 57 57 58 58 57 56 55 55 55 56 56 57 57 56 56 56 55 55 55 55 55 55 55 56 56 56 56 55 55 55 55 55 54 53 52 51
55 55 55 56 58 59 59 59 60 60 59 58 58 57 57 56 57 57 57 57 56 56 56 56 56 56 56 56 56 56 56 56 56 56 56 56 56 55 55 54 53 52
57 57 58 59 60 60 60 61 62 62 62 61 60 59 58 58 58 58 58 57 56 56 57 57 57 57 56 56 56 56 56 56 56 56 56 56 56 56 55 54 54 53
59 60 60 61 61 61 62 63 64 64 64 63 62 61 60 59 59 58 58 57 56 56 56 56 57 57 57 57 57 57 56 57 56 56 56 56 57 57 55 54 54 54
61 62 62 63 63 63 64 64 65 65 65 65 64 63 62 61 60 58 58 57 56 56 56 56 57 57 57 57 57 57 57 56 56 56 56 57 57 57 56 55 54 54
64 64 64 64 65 65 65 65 65 66 66 65 65 64 64 63 61 60 60 59 57 56 56 56 57 57 58 57 58 58 57 56 56 56 57 57 57 58 57 56 55 53
65 65 65 65 65 65 65 65 66 66 66 66 66 67 66 65 64 63 61 58 56 56 56 56 57 57 58 58 58 58 58 57 56 56 56 57 57 58 57 57 55 53
65 65 64 64 64 65 65 66 66 67 67 68 68 68 68 67 66 64 60 56 55 55 56 56 57 57 58 58 58 58 58 58 57 56 56 57 57 58 58 57 56 54
65 65 66 66 66 66 66 67 68 69 70 70 69 68 68 67 65 63 60 58 57 57 57 57 57 58 58 58 58 58 58 58 58 57 57 57 57 58 58 57 56 54
67 68 68 69 69 69 69 70 70 71 70 70 69 68 66 65 64 63 62 61 60 59 58 58 58 58 59 59 59 58 58 58 58 58 57 57 57 58 57 57 55 54
70 70 71 72 72 72 72 71 71 70 69 68 67 66 65 65 64 64 64 63 62 61 59 58 58 59 60 60 60 59 59 59 58 58 58 58 58 58 58 57 55 54
71 71 72 72 73 72 71 70 69 68 67 66 66 66 66 65 65 65 65 64 63 61 60 60 60 60 60 61 61 61 60 59 59 59 59 59 59 58 58 57 56 54
70 70 70 70 70 70 69 68 67 66 65 65 66 66 66 66 66 66 65 64 63 63 62 62 61 60 60 61 62 62 62 61 60 60 60 60 60 59 58 57 56 55
68 68 68 67 67 66 65 65 64 64 64 64 65 65 66 66 67 67 66 65 65 64 63 63 62 61 61 61 62 63 63 63 62 61 60 60 61 60 60 59 57 56
68 67 66 65 63 62 62 62 62 63 63 63 64 65 66 67 68 68 68 67 66 65 64 63 62 62 62 62 62 63 63 64 64 64 62 61 61 61 61 60 59 58
68 66 64 62 60 60 60 60 61 62 63 64 65 66 67 67 68 68 68 67 66 65 64 64 63 63 63 63 63 64 64 64 65 65 65 64 63 62 62 62 61 60
65 62 60 59 59 59 60 61 62 64 65 66 66 66 66 67 67 67 68 67 67 66 66 65 65 65 65 65 65 65 66 66 66 67 67 67 66 65 63 63 63 62
62 60 59 59 60 61 62 63 64 65 66 66 66 66 67 67 68 68 68 68 67 67 67 67 67 67 68 68 68 68 68 68 69 69 69 69 68 68 67 65 64 64
61 60 60 60 61 62 63 64 64 65 66 66 67 68 68 68 69 69 69 69 69 69 69 69 70 70 71 71 71 71 71 71 71 71 71 71 70 70 70 68 67 65
60 60 60 61 62 63 63 64 64 66 67 68 69 69 69 69 70 70 71 71 72 72 73 73 73 74 74 75 75 75 75 74 74 74 74 74 73 73 72 71 70 68
59 60 61 61 62 62 63 64 65 67 68 69 70 70 70 71 71 72 73 74 75 75 76 77 77 78 78 78 79 79 79 79 78 77 77 76 76 75 74 73 73 71
60 61 61 62 62 63 64 66 67 68 70 70 71 71 72 73 73 74 75 76 77 78 79 79 80 80 81 81 81 81 81 81 80 80 79 78 77 77 76 75 74 73
60 61 61 62 64 65 67 68 69 70 71 72 73 73 74 75 76 77 78 79 79 80 81 81 81 81 81 81 81 81 81 81 81 81 80 79 78 78 77 76 75 74
60 61 63 64 66 67 69 69 70 71 72 73 74 75 76 77 78 79 80 80 80 80 81 81 80 80 79 79 79 79 79 79 80 80 79 78 78 78 77 76 75 74
Wind_Direction
280 281 282 282 283 283 284 283 283 284 286 287 287 287 288 289 289 288 286 285 284 283 282 280 278 276 275 274 273 273 274 274 275 275 276 277 278 279 281 282 283 283
280 281 281 282 283 284 284 284 285 286 286 287 287 287 287 288 289 289 288 286 285 283 282 281 280 279 277 276 275 274 274 275 275 276 276 277 278 279 280 282 283 284
280 281 281 281 283 285 285 285 285 286 287 287 287 287 287 288 288 288 287 287 285 284 283 282 281 281 280 278 277 276 275 275 275 275 276 276 277 278 280 281 282 283
281 282 281 281 283 284 284 285 286 287 287 287 287 288 288 288 289 288 287 286 284 283 282 281 281 281 280 279 279 278 276 275 275 274 275 275 276 277 278 280 281 282
281 281 282 282 282 283 284 285 286 287 287 287 288 288 288 289 290 289 288 286 284 282 281 280 280 280 279 279 279 278 277 276 275 274 274 274 275 276 277 278 279 281
281 282 282 283 283 284 285 286 287 287 287 288 288 289 289 290 290 289 288 286 285 283 281 280 279 279 279 279 279 278 277 277 276 274 273 273 274 274 275 276 278 279
281 282 282 283 283 284 285 286 287 287 287 288 288 289 291 291 290 290 289 288 286 284 282 280 279 279 279 279 279 278 278 277 277 276 274 273 273 274 274 275 276 278
281 281 281 282 283 284 284 285 285 286 287 288 289 291 291 291 291 292 291 289 286 285 283 282 280 279 279 279 279 279 278 278 277 276 275 274 273 273 274 275 275 277
279 280 280 281 282 282 283 284 284 285 287 289 290 291 291 291 291 292 291 288 286 284 284 283 281 279 279 279 279 278 278 278 277 276 275 274 274 273 273 274 274 275
278 279 279 279 280 281 282 283 283 285 287 289 289 289 289 290 291 291 290 288 287 286 285 283 281 279 278 278 278 278 278 278 277 276 276 274 274 273 273 273 273 274
277 278 278 278 279 279 280 281 283 284 286 287 287 287 288 289 290 290 290 289 288 288 286 284 281 279 278 277 277 277 277 277 277 276 275 274 273 273 272 272 272 273
277 277 278 279 279 279 280 281 283 284 285 286 286 287 287 288 288 289 288 288 288 288 286 284 282 280 278 277 276 276 276 276 275 275 274 274 273 272 272 272 271 271
277 278 279 279 280 280 281 282 283 284 285 285 285 286 286 286 287 287 287 287 287 286 285 284 282 280 278 277 276 275 275 275 274 274 273 272 272 271 271 271 270 270
278 278 279 280 280 281 282 282 283 283 283 283 284 284 285 285 285 286 286 286 286 286 285 284 282 280 278 278 277 276 275 274 273 273 272 271 271 270 270 270 269 268
280 280 280 280 281 281 282 282 282 282 282 282 283 283 284 285 285 285 285 286 286 286 285 284 282 280 278 278 277 276 275 274 273 272 271 270 270 269 268 268 267 266
282 282 282 282 282 282 282 282 282 282 283 283 283 283 283 284 285 285 285 285 285 285 284 283 281 279 278 277 276 276 276 275 273 271 270 269 268 268 267 266 265 264
284 284 284 283 283 283 283 282 282 283 283 282 282 283 283 283 284 285 285 285 285 284 284 282 281 279 278 276 276 275 275 274 274 272 270 268 267 266 265 264 264 262
286 286 285 284 283 283 283 283 282 282 282 282 282 282 283 283 284 284 285 285 285 285 283 282 281 279 278 276 275 275 274 273 273 272 271 269 267 265 264 263 262 260
286 285 284 283 283 283 282 282 282 282 283 283 283 284 284 284 284 285 285 285 285 284 284 282 281 279 278 276 275 274 273 272 271 270 270 269 268 266 263 261 260 259
284 283 282 282 282 282 282 282 283 284 284 285 285 286 286 286 286 286 286 285 285 284 283 282 281 280 278 277 275 274 273 272 271 270 268 268 267 266 264 262 259 258
283 282 282 282 282 283 283 284 285 286 287 287 287 287 288 288 288 287 287 287 286 285 284 283 282 281 279 278 276 274 272 271 270 269 268 267 265 264 264 262 260 258
283 283 283 283 284 284 285 286 287 287 288 288 288 289 289 289 289 289 288 288 287 286 285 284 283 282 280 279 278 276 274 272 270 269 268 266 265 263 262 261 260 258
284 284 284 285 285 286 287 288 288 289 289 289 289 289 289 289 289 289 288 288 287 286 286 285 283 282 281 280 279 277 276 274 272 270 268 267 265 264 262 260 259 258
284 284 285 286 287 288 288 289 290 290 290 290 290 290 290 290 290 289 289 288 288 287 286 285 285 284 283 281 280 278 277 275 274 272 270 268 266 264 262 260 258 256
284 285 286 288 289 290 290 291 291 291 291 291 291 291 291 291 290 290 289 289 289 288 287 287 286 285 284 282 281 280 278 276 275 273 271 269 267 265 263 261 258 255
287 288 289 290 291 291 292 292 292 292 292 292 292 291 291 291 291 291 291 291 290 290 289 289 288 286 285 284 282 281 279 277 275 274 272 270 268 266 264 261 259 256
Height
10657 10657 10656 10655 10655 10654 10653 10653 10653 10652 10651 10650 10649 10648 10647 10645 10644 10642 10641 10641 10640 10639 10638 10637 10635 10635 10634 10634 10633 10633 10633 10633 10633 10633 10633 10631 10630 10631 10630 10629 10629 10629
10650 10650 10649 10648 10647 10646 10645 10645 10645 10644 10644 10643 10642 10641 10640 10639 10637 10635 10634 10633 10633 10632 10631 10629 10628 10628 10627 10626 10626 10626 10626 10626 10626 10626 10625 10624 10623 10623 10622 10622 10621 10621
10644 10643 10642 10642 10641 10639 10638 10638 10638 10637 10636 10636 10635 10634 10633 10632 10631 10628 10627 10626 10625 10624 10623 10621 10620 10620 10619 10618 10618 10618 10618 10618 10618 10618 10617 10616 10616 10616 10615 10614 10614 10614
10637 10637 10636 10635 10634 10633 10632 10631 10630 10630 10629 10628 10628 10627 10626 10625 10624 10622 10620 10619 10617 10616 10615 10614 10612 10612 10611 10611 10610 10610 10610 10610 10610 10611 10610 10609 10608 10608 10608 10607 10607 10606
10631 10630 10629 10628 10627 10626 10625 10624 10623 10622 10621 10621 10620 10620 10619 10618 10617 10615 10613 10612 10610 10608 10607 10606 10605 10604 10603 10603 10603 10602 10602 10602 10602 10603 10603 10601 10600 10601 10601 10600 10600 10599
10624 10623 10622 10621 10619 10619 10618 10617 10616 10614 10613 10613 10612 10612 10611 10610 10609 10607 10606 10605 10603 10601 10600 10598 10597 10596 10595 10594 10594 10594 10594 10594 10594 10595 10595 10594 10593 10592 10593 10593 10592 10592
10617 10617 10615 10614 10613 10612 10611 10610 10608 10607 10605 10604 10604 10604 10603 10602 10600 10599 10597 10596 10595 10593 10592 10590 10589 10588 10587 10586 10586 10586 10586 10586 10586 10586 10586 10586 10586 10584 10585 10586 10585 10585
10610 10610 10609 10608 10607 10605 10604 10602 10600 10599 10597 10596 10596 10595 10594 10593 10592 10591 10589 10588 10586 10585 10584 10582 10581 10579 10579 10578 10578 10577 10578 10578 10578 10578 10578 10578 10577 10577 10577 10577 10578 10578
10603 10603 10603 10602 10601 10599 10597 10595 10593 10591 10590 10590 10589 10587 10586 10585 10583 10582 10581 10580 10578 10577 10576 10574 10573 10571 10570 10570 10569 10569 10569 10569 10570 10570 10570 10570 10569 10569 10569 10569 10570 10571
10596 10596 10596 10596 10594 10592 10590 10588 10586 10585 10584 10583 10582 10580 10578 10577 10576 10575 10573 10572 10570 10569 10568 10566 10565 10564 10562 10562 10561 10561 10560 10560 10561 10562 10562 10562 10561 10561 10561 10562 10562 10563
10590 10589 10588 10588 10587 10585 10584 10582 10580 10579 10578 10576 10575 10573 10571 10570 10569 10567 10566 10564 10563 10561 10560 10558 10556 10555 10554 10554 10553 10553 10552 10552 10552 10552 10553 10553 10553 10552 10553 10554 10554 10555
10583 10581 10580 10579 10578 10577 10576 10575 10574 10572 10571 10569 10567 10566 10564 10563 10561 10559 10558 10556 10555 10553 10552 10550 10548 10547 10545 10545 10545 10545 10544 10544 10544 10544 10544 10544 10544 10544 10544 10546 10547 10547
10575 10574 10572 10571 10570 10569 10569 10568 10567 10565 10563 10561 10559 10558 10556 10555 10553 10551 10550 10548 10547 10545 10544 10542 10541 10539 10537 10536 10536 10536 10536 10536 10536 10535 10535 10535 10535 10535 10536 10537 10539 10539
10567 10566 10565 10563 10562 10561 10561 10560 10559 10557 10555 10553 10551 10549 10548 10546 10545 10543 10541 10540 10538 10537 10536 10534 10533 10531 10529 10527 10526 10527 10527 10527 10527 10527 10527 10526 10526 10526 10527 10528 10529 10531
10559 10558 10557 10555 10554 10553 10552 10551 10550 10549 10547 10545 10543 10541 10539 10537 10535 10534 10533 10531 10530 10528 10527 10526 10524 10523 10521 10519 10517 10517 10517 10518 10519 10519 10518 10518 10517 10518 10518 10519 10520 10522
10551 10550 10549 10547 10546 10545 10544 10543 10541 10540 10539 10537 10535 10533 10531 10528 10526 10525 10524 10522 10521 10520 10518 10517 10515 10514 10512 10511 10509 10508 10507 10507 10508 10509 10510 10509 10508 10508 10509 10510 10511 10512
10543 10542 10540 10539 10538 10537 10536 10534 10533 10531 10530 10528 10526 10524 10522 10520 10518 10516 10514 10513 10512 10510 10509 10507 10506 10504 10503 10502 10501 10499 10498 10497 10497 10498 10499 10500 10500 10499 10499 10500 10501 10503
10535 10534 10532 10531 10530 10528 10527 10526 10524 10523 10521 10519 10517 10516 10514 10512 10509 10507 10505 10503 10501 10500 10499 10497 10496 10495 10493 10492 10491 10490 10489 10488 10487 10486 10487 10488 10489 10490 10490 10490 10491 10493
10528 10526 10524 10523 10522 10520 10519 10517 10516 10514 10512 10510 10508 10506 10505 10502 10500 10498 10495 10493 10491 10490 10489 10487 10485 10484 10483 10482 10481 10479 10478 10477 10477 10476 10476 10476 10477 10478 10479 10480 10480 10482
10520 10519 10517 10515 10514 10512 10511 10509 10507 10505 10503 10501 10499 10497 10495 10493 10490 10488 10486 10484 10482 10480 10478 10476 10474 10472 10471 10470 10469 10468 10467 10466 10465 10465 10465 10465 10465 10466 10467 10469 10470 10471
10513 10511 10510 10508 10506 10505 10503 10501 10499 10497 10494 10491 10489 10487 10485 10483 10480 10478 10475 10473 10471 10469 10467 10465 10463 10461 10459 10457 10456 10455 10455 10454 10453 10453 10452 10453 10453 10454 10455 10456 10458 10460
10506 10504 10502 10501 10499 10497 10495 10493 10491 10488 10485 10482 10480 10478 10476 10473 10471 10468 10465 10462 10460 10457 10455 10453 10451 10449 10446 10444 10442 10441 10440 10440 10440 10440 10439 10439 10440 10441 10442 10443 10445 10447
10498 10497 10495 10493 10491 10489 10487 10485 10482 10479 10476 10473 10471 10468 10466 10464 10461 10458 10455 10452 10449 10446 10443 10440 10438 10435 10433 10431 10429 10427 10425 10424 10424 10425 10425 10425 10426 10427 10429 10430 10432 10434
10491 10489 10488 10486 10483 10481 10478 10476 10473 10470 10466 10464 10461 10459 10456 10453 10451 10448 10445 10441 10437 10434 10431 10428 10425 10421 10418 10416 10414 10412 10410 10408 10407 10408 10409 10409 10410 10411 10413 10416 10418 10420
10484 10482 10480 10478 10475 10472 10469 10467 10464 10460 10457 10454 10451 10449 10446 10443 10440 10436 10433 10430 10426 10422 10418 10414 10411 10408 10404 10401 10399 10396 10394 10392 10391 10390 10391 10393 10394 10395 10397 10400 10403 10406
10476 10474 10472 10469 10466 10463 10460 10457 10455 10451 10448 10445 10442 10439 10435 10432 10428 10424 10421 10417 10413 10409 10405 10400 10397 10393 10390 10386 10383 10381 10378 10376 10375 10374 10374 10375 10377 10378 10380 10383 10386 10390